LEJRGEML

Guest
Details From LEJR - Jerez
To GEML - Melilla
Flight Number -
Tags Routegen
Created
Modified
Stats Distance 185 nm / 343 km
Max Altitude 0 ft / 0 m
Waypoints 4
Social Downloads 6
Likes 0
Share

Download

Looking for another format? Having issues loading an existing format? Contact us
Advertisement - Login to hide

Notes

None

Route

LEJR +36.60_-006.13 +35.65_-003.26 GEML

ID Type Via Altitude (ft/m) Position (lat/lon) Dist (leg/tot) Name
O LEJR APT - 0 / 0 36.73497 / -6.06481 - / 0 nm
+36.60_-006.13 DME - 0 / 0 36.60014 / -6.13041 8 / 8 nm
+35.65_-003.26 DME - 0 / 0 35.64712 / -3.25692 150 / 159 nm
O GEML APT - 0 / 0 35.28586 / -2.96118 26 / 185 nm

Altitude Profile

Advertisement - Login to hide

Weather


0- 5 10 15 20 25 30 35+ Temperature / °C

Clouds and Precipitation
Forecast for 2020-07-12 06:00 UTC. Updated 5 hours ago

Ground ~20,000 ft ~40,000 ft Winds

LEJR

Details ICAO LEJR (XRY)
Name Jerez
Region Spain
Timezone Europe/Madrid (UTC+2.0)
Stats Elevation 92 ft / 28 m (AMSL)
Location 36.744600° -6.060100°
Runways 1
Magnetic Variation 1.040° W

METAR

LEJR 120830Z 11007KT 050V160 CAVOK 31/15 Q1014

Decode

TAF

TAF LEJR 120500Z 1206/1306 08005KT CAVOK TX38/1215Z TN20/1305Z BECMG 1209/1211 15014KT BECMG 1216/1218 25007KT

Decode

Departure Runways

ID Width Length Bearing (true/mag) Surface Threshold Overrun Markings Lighting
02 148 ft / 45 m 7,553 ft / 2,302 m 21.33° / 22.37° ASPHALT 0 ft / 0 m 0 ft / 0 m PREC-APP CENTERLINE EDGE THRESHOLD SALS
20 148 ft / 45 m 7,553 ft / 2,302 m 201.34° / 202.37° ASPHALT 0 ft / 0 m 0 ft / 0 m PREC-APP CENTERLINE EDGE THRESHOLD CALVERT

GEML

Details ICAO GEML (MLN)
Name MELILLA
Region Ceuta and Melilla
Timezone Africa/Casablanca (UTC+1.0)
Stats Elevation 155 ft / 47 m (AMSL)
Location 35.280200° -2.956550°
Runways 1
Magnetic Variation 0.175° W

METAR

GEML 120830Z 08008KT 040V120 9999 FEW012 26/23 Q1014

Decode

TAF

TAF GEML 120800Z 1209/1309 09009KT 9999 FEW015 TX28/1214Z TN23/1305Z PROB40 TEMPO 1210/1213 13016G30KT TEMPO 1220/1309 BKN010

Decode

Destination Runways

ID Width Length Bearing (true/mag) Surface Threshold Overrun Markings Lighting
15 148 ft / 45 m 5,173 ft / 1,577 m 146.37° / 146.55° ASPHALT 978 ft / 298 m 0 ft / 0 m APP RAIL REIL-OMNI
33 148 ft / 45 m 5,173 ft / 1,577 m 326.38° / 326.55° ASPHALT 272 ft / 83 m 0 ft / 0 m APP RAIL REIL-OMNI

Popular Alternatives